Time,TemperatureF,DewpointF,PressureIn,WindDirection,WindDirectionDegrees,WindSpeedMPH,WindSpeedGustMPH,Humidity,HourlyPrecipIn,Conditions,Clouds,dailyrainin,SoftwareType,DateUTC
2013-03-04 00:04:00,18.4,15.0,30.11,WNW,293,0.0,0.0,87,0.00,,,0.00,weatherlink.com 1.10,2013-03-04 05:04:00,
2013-03-04 00:19:00,17.9,15.0,30.11,WNW,293,0.0,0.0,87,0.00,,,0.00,weatherlink.com 1.10,2013-03-04 05:19:00,
2013-03-04 00:35:00,17.8,15.0,30.12,WNW,293,0.0,0.0,89,0.00,,,0.00,weatherlink.com 1.10,2013-03-04 05:35:00,
2013-03-04 00:50:00,17.7,15.0,30.11,WNW,293,0.0,0.0,88,0.00,,,0.00,weatherlink.com 1.10,2013-03-04 05:50:00,
2013-03-04 01:05:00,17.7,15.0,30.12,WNW,293,0.0,0.0,89,0.00,,,0.00,weatherlink.com 1.10,2013-03-04 06:05:00,
2013-03-04 01:20:00,17.5,15.0,30.12,WNW,293,0.0,0.0,88,0.00,,,0.00,weatherlink.com 1.10,2013-03-04 06:20:00,
2013-03-04 01:35:00,17.3,15.0,30.12,WNW,293,0.0,0.0,89,0.00,,,0.00,weatherlink.com 1.10,2013-03-04 06:35:00,
2013-03-04 01:50:00,18.2,16.0,30.12,WNW,293,0.0,0.0,90,0.00,,,0.00,weatherlink.com 1.10,2013-03-04 06:50:00,
2013-03-04 02:05:00,18.7,17.0,30.12,WNW,293,0.0,0.0,91,0.00,,,0.00,weatherlink.com 1.10,2013-03-04 07:05:00,
2013-03-04 02:20:00,18.9,16.0,30.12,WNW,293,0.0,0.0,89,0.00,,,0.00,weatherlink.com 1.10,2013-03-04 07:20:00,
2013-03-04 02:35:00,18.4,16.0,30.12,WNW,293,0.0,0.0,89,0.00,,,0.00,weatherlink.com 1.10,2013-03-04 07:35:00,
2013-03-04 02:50:00,17.8,15.0,30.12,WNW,293,0.0,0.0,89,0.00,,,0.00,weatherlink.com 1.10,2013-03-04 07:50:00,
2013-03-04 03:05:00,17.6,15.0,30.13,WNW,293,0.0,0.0,90,0.00,,,0.00,weatherlink.com 1.10,2013-03-04 08:05:00,
2013-03-04 03:20:00,17.0,15.0,30.13,WNW,293,0.0,0.0,90,0.00,,,0.00,weatherlink.com 1.10,2013-03-04 08:20:00,
2013-03-04 03:35:00,16.3,14.0,30.14,WNW,293,0.0,0.0,90,0.00,,,0.00,weatherlink.com 1.10,2013-03-04 08:35:00,
2013-03-04 03:50:00,16.2,14.0,30.14,WNW,293,0.0,0.0,91,0.00,,,0.00,weatherlink.com 1.10,2013-03-04 08:50:00,
2013-03-04 04:05:00,16.0,14.0,30.14,WNW,293,0.0,0.0,92,0.00,,,0.00,weatherlink.com 1.10,2013-03-04 09:05:00,
2013-03-04 04:20:00,15.8,14.0,30.14,WNW,293,0.0,0.0,92,0.00,,,0.00,weatherlink.com 1.10,2013-03-04 09:20:00,
2013-03-04 04:35:00,15.8,14.0,30.14,WNW,293,0.0,0.0,93,0.00,,,0.00,weatherlink.com 1.10,2013-03-04 09:35:00,
2013-03-04 04:50:00,15.9,14.0,30.14,WNW,293,0.0,0.0,93,0.00,,,0.00,weatherlink.com 1.10,2013-03-04 09:50:00,
2013-03-04 05:05:00,16.4,15.0,30.15,WNW,293,0.0,0.0,93,0.00,,,0.00,weatherlink.com 1.10,2013-03-04 10:05:00,
2013-03-04 05:20:00,16.0,14.0,30.15,WNW,293,0.0,0.0,93,0.00,,,0.00,weatherlink.com 1.10,2013-03-04 10:20:00,
2013-03-04 05:35:00,16.1,15.0,30.15,WNW,293,0.0,0.0,93,0.00,,,0.00,weatherlink.com 1.10,2013-03-04 10:35:00,
2013-03-04 05:50:00,15.5,14.0,30.16,WNW,293,0.0,0.0,92,0.00,,,0.00,weatherlink.com 1.10,2013-03-04 10:50:00,
2013-03-04 06:05:00,15.4,14.0,30.16,WNW,293,0.0,0.0,93,0.00,,,0.00,weatherlink.com 1.10,2013-03-04 11:05:00,
2013-03-04 06:20:00,15.9,15.0,30.16,WNW,293,0.0,0.0,94,0.00,,,0.00,weatherlink.com 1.10,2013-03-04 11:20:00,
2013-03-04 06:35:00,16.2,15.0,30.16,WNW,293,0.0,0.0,93,0.00,,,0.00,weatherlink.com 1.10,2013-03-04 11:35:00,
2013-03-04 06:50:00,16.2,15.0,30.16,WNW,293,0.0,0.0,93,0.00,,,0.00,weatherlink.com 1.10,2013-03-04 11:50:00,
2013-03-04 07:05:00,16.7,15.0,30.16,WNW,293,0.0,0.0,94,0.00,,,0.00,weatherlink.com 1.10,2013-03-04 12:05:00,
2013-03-04 07:20:00,16.6,15.0,30.16,WNW,293,0.0,0.0,93,0.00,,,0.00,weatherlink.com 1.10,2013-03-04 12:20:00,
2013-03-04 07:35:00,17.2,16.0,30.16,WNW,293,0.0,0.0,94,0.00,,,0.00,weatherlink.com 1.10,2013-03-04 12:35:00,
2013-03-04 07:50:00,19.2,18.0,30.16,WNW,293,0.0,0.0,95,0.00,,,0.00,weatherlink.com 1.10,2013-03-04 12:50:00,
2013-03-04 08:05:00,21.1,20.0,30.16,WNW,293,0.0,0.0,94,0.00,,,0.00,weatherlink.com 1.10,2013-03-04 13:05:00,
2013-03-04 08:20:00,22.4,20.0,30.17,WNW,293,0.0,1.0,91,0.00,,,0.00,weatherlink.com 1.10,2013-03-04 13:20:00,
2013-03-04 08:35:00,23.3,20.0,30.17,WNW,293,0.0,0.0,88,0.00,,,0.00,weatherlink.com 1.10,2013-03-04 13:35:00,
2013-03-04 08:50:00,23.8,20.0,30.17,North,5,0.0,1.0,86,0.00,,,0.00,weatherlink.com 1.10,2013-03-04 13:50:00,
2013-03-04 09:05:00,24.7,21.0,30.17,North,360,2.0,3.0,84,0.00,,,0.00,weatherlink.com 1.10,2013-03-04 14:05:00,
2013-03-04 09:20:00,24.9,20.0,30.16,North,360,0.0,1.0,83,0.00,,,0.00,weatherlink.com 1.10,2013-03-04 14:20:00,
2013-03-04 09:35:00,25.6,21.0,30.16,North,360,3.0,3.0,81,0.00,,,0.00,weatherlink.com 1.10,2013-03-04 14:35:00,
2013-03-04 09:50:00,26.2,21.0,30.16,North,360,0.0,3.0,80,0.00,,,0.00,weatherlink.com 1.10,2013-03-04 14:50:00,
2013-03-04 10:06:00,26.5,21.0,30.16,SSE,163,0.0,4.0,80,0.00,,,0.00,weatherlink.com 1.10,2013-03-04 15:06:00,
2013-03-04 10:21:00,26.8,21.0,30.16,SSE,163,3.0,4.0,79,0.00,,,0.00,weatherlink.com 1.10,2013-03-04 15:21:00,
2013-03-04 10:36:00,27.8,22.0,30.16,SE,125,2.0,3.0,78,0.00,,,0.00,weatherlink.com 1.10,2013-03-04 15:36:00,
2013-03-04 10:51:00,28.3,22.0,30.16,SE,132,1.0,5.0,77,0.00,,,0.00,weatherlink.com 1.10,2013-03-04 15:51:00,
2013-03-04 11:06:00,28.8,22.0,30.16,ENE,78,0.0,5.0,75,0.00,,,0.00,weatherlink.com 1.10,2013-03-04 16:06:00,
2013-03-04 11:21:00,29.3,21.0,30.15,SSE,148,0.0,5.0,70,0.00,,,0.00,weatherlink.com 1.10,2013-03-04 16:21:00,
2013-03-04 11:36:00,30.3,22.0,30.15,SSE,147,1.0,5.0,70,0.00,,,0.00,weatherlink.com 1.10,2013-03-04 16:36:00,
2013-03-04 11:51:00,30.8,21.0,30.14,SE,128,3.0,7.0,68,0.00,,,0.00,weatherlink.com 1.10,2013-03-04 16:51:00,
2013-03-04 12:06:00,31.4,20.0,30.14,ESE,121,0.0,2.0,64,0.00,,,0.00,weatherlink.com 1.10,2013-03-04 17:06:00,
2013-03-04 12:21:00,31.9,20.0,30.13,SSE,160,2.0,4.0,61,0.00,,,0.00,weatherlink.com 1.10,2013-03-04 17:21:00,
2013-03-04 12:36:00,32.1,22.0,30.13,SE,132,2.0,5.0,66,0.00,,,0.00,weatherlink.com 1.10,2013-03-04 17:36:00,
2013-03-04 12:51:00,32.5,22.0,30.13,SSE,150,1.0,6.0,65,0.00,,,0.00,weatherlink.com 1.10,2013-03-04 17:51:00,
2013-03-04 13:06:00,33.0,22.0,30.12,East,84,2.0,7.0,64,0.00,,,0.00,weatherlink.com 1.10,2013-03-04 18:06:00,
2013-03-04 13:21:00,32.8,21.0,30.11,SSE,148,2.0,7.0,62,0.00,,,0.00,weatherlink.com 1.10,2013-03-04 18:21:00,
2013-03-04 13:36:00,32.9,21.0,30.11,East,90,2.0,7.0,63,0.00,,,0.00,weatherlink.com 1.10,2013-03-04 18:36:00,
2013-03-04 13:51:00,33.2,21.0,30.10,East,86,1.0,8.0,61,0.00,,,0.00,weatherlink.com 1.10,2013-03-04 18:51:00,
2013-03-04 14:06:00,33.4,21.0,30.09,SE,127,2.0,8.0,61,0.00,,,0.00,weatherlink.com 1.10,2013-03-04 19:06:00,
2013-03-04 14:21:00,33.4,21.0,30.09,SE,145,5.0,8.0,60,0.00,,,0.00,weatherlink.com 1.10,2013-03-04 19:21:00,
2013-03-04 14:36:00,33.7,21.0,30.09,SE,130,3.0,8.0,59,0.00,,,0.00,weatherlink.com 1.10,2013-03-04 19:36:00,
2013-03-04 14:51:00,34.3,21.0,30.09,SE,131,6.0,8.0,59,0.00,,,0.00,weatherlink.com 1.10,2013-03-04 19:51:00,
2013-03-04 15:06:00,34.6,22.0,30.08,SSE,154,5.0,7.0,60,0.00,,,0.00,weatherlink.com 1.10,2013-03-04 20:06:00,
2013-03-04 15:21:00,35.0,21.0,30.08,SE,139,6.0,9.0,57,0.00,,,0.00,weatherlink.com 1.10,2013-03-04 20:21:00,
2013-03-04 15:36:00,34.9,21.0,30.08,ESE,109,5.0,11.0,57,0.00,,,0.00,weatherlink.com 1.10,2013-03-04 20:36:00,
2013-03-04 15:51:00,34.7,21.0,30.08,SSE,159,4.0,8.0,58,0.00,,,0.00,weatherlink.com 1.10,2013-03-04 20:51:00,
2013-03-04 16:06:00,34.9,22.0,30.07,East,96,5.0,7.0,59,0.00,,,0.00,weatherlink.com 1.10,2013-03-04 21:06:00,
2013-03-04 16:21:00,35.1,22.0,30.07,SE,134,3.0,8.0,60,0.00,,,0.00,weatherlink.com 1.10,2013-03-04 21:21:00,
2013-03-04 16:36:00,35.0,22.0,30.07,ESE,122,3.0,7.0,59,0.00,,,0.00,weatherlink.com 1.10,2013-03-04 21:36:00,
2013-03-04 16:51:00,35.1,22.0,30.07,East,89,6.0,7.0,60,0.00,,,0.00,weatherlink.com 1.10,2013-03-04 21:51:00,
2013-03-04 17:06:00,35.2,22.0,30.07,East,91,5.0,7.0,59,0.00,,,0.00,weatherlink.com 1.10,2013-03-04 22:06:00,
2013-03-04 17:21:00,35.0,23.0,30.07,East,98,6.0,7.0,61,0.00,,,0.00,weatherlink.com 1.10,2013-03-04 22:21:00,
2013-03-04 17:36:00,34.6,23.0,30.06,East,99,6.0,9.0,64,0.00,,,0.00,weatherlink.com 1.10,2013-03-04 22:36:00,
2013-03-04 17:51:00,34.2,25.0,30.06,ESE,105,4.0,8.0,69,0.00,,,0.00,weatherlink.com 1.10,2013-03-04 22:51:00,
2013-03-04 18:06:00,33.8,24.0,30.06,ESE,114,5.0,8.0,67,0.00,,,0.00,weatherlink.com 1.10,2013-03-04 23:06:00,
2013-03-04 18:21:00,33.4,24.0,30.06,East,101,5.0,8.0,68,0.00,,,0.00,weatherlink.com 1.10,2013-03-04 23:21:00,
2013-03-04 18:36:00,33.2,24.0,30.06,ESE,109,7.0,8.0,69,0.00,,,0.00,weatherlink.com 1.10,2013-03-04 23:36:00,
2013-03-04 18:51:00,33.1,24.0,30.06,East,88,6.0,9.0,68,0.00,,,0.00,weatherlink.com 1.10,2013-03-04 23:51:00,
2013-03-04 19:06:00,33.0,24.0,30.05,East,89,6.0,10.0,70,0.00,,,0.00,weatherlink.com 1.10,2013-03-05 00:06:00,
2013-03-04 19:21:00,32.9,24.0,30.06,East,97,3.0,11.0,69,0.00,,,0.00,weatherlink.com 1.10,2013-03-05 00:21:00,
2013-03-04 19:37:00,32.7,24.0,30.06,East,99,6.0,9.0,71,0.00,,,0.00,weatherlink.com 1.10,2013-03-05 00:37:00,
2013-03-04 19:51:00,32.6,25.0,30.06,East,96,7.0,10.0,73,0.00,,,0.00,weatherlink.com 1.10,2013-03-05 00:51:00,
2013-03-04 20:06:00,32.5,25.0,30.05,East,94,7.0,10.0,74,0.00,,,0.00,weatherlink.com 1.10,2013-03-05 01:06:00,
2013-03-04 20:21:00,32.4,25.0,30.06,East,93,6.0,9.0,74,0.00,,,0.00,weatherlink.com 1.10,2013-03-05 01:21:00,
2013-03-04 20:36:00,32.4,25.0,30.07,ESE,111,4.0,7.0,74,0.00,,,0.00,weatherlink.com 1.10,2013-03-05 01:36:00,
2013-03-04 20:51:00,32.4,24.0,30.07,ESE,106,4.0,5.0,72,0.00,,,0.00,weatherlink.com 1.10,2013-03-05 01:51:00,
2013-03-04 21:07:00,32.4,25.0,30.08,ESE,112,2.0,3.0,73,0.00,,,0.00,weatherlink.com 1.10,2013-03-05 02:07:00,
2013-03-04 21:22:00,32.3,25.0,30.08,ESE,112,2.0,3.0,75,0.00,,,0.00,weatherlink.com 1.10,2013-03-05 02:22:00,
2013-03-04 21:37:00,32.3,24.0,30.09,SE,134,2.0,4.0,72,0.00,,,0.00,weatherlink.com 1.10,2013-03-05 02:37:00,
2013-03-04 21:52:00,32.4,25.0,30.09,SE,138,1.0,4.0,74,0.00,,,0.00,weatherlink.com 1.10,2013-03-05 02:52:00,
2013-03-04 22:07:00,32.3,25.0,30.09,SE,138,3.0,5.0,74,0.00,,,0.00,weatherlink.com 1.10,2013-03-05 03:07:00,
2013-03-04 22:22:00,32.3,25.0,30.09,SE,134,2.0,4.0,75,0.00,,,0.00,weatherlink.com 1.10,2013-03-05 03:22:00,
2013-03-04 22:37:00,32.3,25.0,30.09,SE,134,3.0,6.0,75,0.00,,,0.00,weatherlink.com 1.10,2013-03-05 03:37:00,
2013-03-04 22:52:00,32.3,25.0,30.09,SE,135,3.0,5.0,74,0.00,,,0.00,weatherlink.com 1.10,2013-03-05 03:52:00,
2013-03-04 23:07:00,32.3,26.0,30.08,SE,134,2.0,6.0,76,0.00,,,0.00,weatherlink.com 1.10,2013-03-05 04:07:00,
2013-03-04 23:22:00,32.3,26.0,30.08,SE,142,6.0,8.0,77,0.00,,,0.00,weatherlink.com 1.10,2013-03-05 04:22:00,
2013-03-04 23:37:00,32.2,26.0,30.09,SSE,151,7.0,11.0,79,0.00,,,0.00,weatherlink.com 1.10,2013-03-05 04:37:00,
2013-03-04 23:52:00,31.5,27.0,30.09,SSE,157,5.0,8.0,83,0.00,,,0.00,weatherlink.com 1.10,2013-03-05 04:52:00,